Starlink 30802

operational
NORAD ID: 58150 Int'l Des: 2023-166 Owner: SPXS Country: US Constellation: starlink
LEOCIRCULAR

Über Starlink 30802

Beschreibung wird geladen...

Live-Position

3D-Globus wird geladen...

Nächste Überflüge

Höhenverlauf

Altitude vs Time

uPlot chart will show altitude changes over time

Zweizeiliger Elementsatz

1 58150U 23166A 25259.16067925 .00003077 00000-0 11600-3 0 9994
2 58150 53.1605 310.5893 0000550 87.4434 272.6630 15.30189277106455
Epoch: 16. Sept. 2025 • Age: 9 hours

Aktueller Status

Höhe 489.4 km
Geschwindigkeit 7.62 km/s
Subsatellitenpunkt -41.60°S, 16.23°W
Startdatum 29. Okt. 2023
Alter 1.8 years
Typ internet

Technische Details

Klassifizierung Payload
Masse 730.00 kg
Trockenmasse 700.00 kg
Gesamtmasse 730.00 kg
Länge 0.30 m
Durchmesser 4.10 m
Spannweite 29.00 m
Form Box + pan
Hersteller SPXS
Bus-Typ Starlink V2M
Phasenstatus In Orbit
Besitzer/Staat SPXS/US

Große Konstellationen

Loading constellations...